Location: Arcueil
(48.7999°N, 2.3326°E)
Time: 19:00:38
(UTC+00:00)

EO-79 - Pass Details

Date: 26 June 2024
Orbit: 555 x 577 km, 98.0° (Epoch: 19 July)

Event Time Altitude Azimuth Distance (km) Brightness Sun altitude
Rises 02:37:47 0° 22° (NNE) 2,754 ? -9.1°
Reaches altitude 10° 02:40:06 10° 32° (NNE) 1,851 ? -8.9°
Maximum altitude 02:43:43 32° 97° (E) 969 ? -8.5°
Drops below altitude 10° 02:47:18 10° 161° (SSE) 1,835 ? -8.1°
Sets 02:49:35 0° 172° (S) 2,725 ? -7.9°
Enters shadow 02:49:42 - 172° (S) 2,770 ? -7.9°
